Location: Black Swamp Observatory
(41.3920°N, 84.1250°W)
Time: 21:05:50
(UTC-04:00)

Amateur Radio Satellites - All Passes

Search period start: 29 March 2015 20:35
Search period end: 30 March 2015 20:35
Location: Black Swamp Observatory, 41.3920°N, 84.1250°W

Satellite Date Start Highest point End Downlink Frequencies (MHz)
Time Altitude Azimuth
AUBIESAT-1 29 Mar 20:38:55 20:42:16 19° 301° (WNW) 20:45:27 437.475
GOMX 1 29 Mar 20:39:00 20:42:32 24° 70° (ENE) 20:46:02 467.674
CUTE 1.7 + AOD 2 29 Mar 20:39:28 20:42:31 20° 68° (ENE) 20:45:42 437.475
PRISM 29 Mar 20:44:48 20:48:53 51° 287° (WNW) 20:52:54 437.425
STRAND 1 29 Mar 20:53:02 20:58:10 79° 286° (WNW) 21:03:15 437.568
SO-50 29 Mar 20:56:56 21:01:10 33° 313° (NW) 21:05:31 436.795
AAUSAT CUBESAT 2 29 Mar 21:02:58 21:06:05 21° 68° (ENE) 21:09:19 437.432
BEESAT 3 29 Mar 21:05:09 21:08:28 23° 247° (WSW) 21:11:40 437.485
M-CUBED/EXP-1 PRIME 29 Mar 21:05:49 21:06:38 10° 305° (NW) 21:07:11 437.505
SEEDS 29 Mar 21:07:32 21:11:18 33° 71° (ENE) 21:15:08 437.485
HO-68 29 Mar 21:11:14 21:18:19 68° 70° (ENE) 21:25:28 435.675
GONETS M04 29 Mar 21:25:35 21:34:03 53° 285° (WNW) 21:42:34
COMPASS 1 29 Mar 21:29:18 21:33:18 47° 73° (ENE) 21:37:23 437.405
Oscar 11 29 Mar 21:30:10 21:33:22 21° 68° (ENE) 21:36:41 145.826/435.025
BRITE-PL 29 Mar 21:30:33 21:35:15 60° 259° (W) 21:39:37 437.365/2234.400
CUBESAT XI-V 29 Mar 21:39:58 21:42:25 14° 296° (WNW) 21:44:41 437.345
CINEMA 3 29 Mar 21:41:10 21:45:01 37° 72° (ENE) 21:48:52 145.822/145.860
AIST 2 29 Mar 21:41:20 21:45:11 34° 245° (WSW) 21:48:57 435.215
FUNcube-1 29 Mar 21:42:29 21:44:34 14° 65° (ENE) 21:46:49 145.935
UWE-3 29 Mar 21:46:35 21:49:30 19° 67° (ENE) 21:52:32 435.000/436.395/437.385
DANDE 29 Mar 21:50:21 21:53:15 37° 98° (E) 21:55:48 436.750
CUBEBUG 2 29 Mar 21:51:39 21:55:05 26° 70° (ENE) 21:58:35 437.445
ZACube-1 29 Mar 21:54:34 21:57:27 19° 67° (ENE) 22:00:29 437.345
RS-15 29 Mar 21:54:46 22:05:11 47° 318° (NW) 22:15:48 29.354- 29.394
CANX-2 29 Mar 22:00:13 22:04:18 46° 262° (W) 22:08:25 2200.000
DOVE 4 29 Mar 22:03:27 22:07:46 60° 260° (W) 22:11:56 437.250
CUTE 1.7 + AOD 2 29 Mar 22:14:20 22:18:15 35° 263° (W) 22:22:10 437.475
DELFI C3 29 Mar 22:15:08 22:19:03 48° 73° (ENE) 22:23:00 145.870
GOMX 1 29 Mar 22:16:40 22:20:39 29° 264° (W) 22:24:23 467.674
STRAND 1 29 Mar 22:35:41 22:36:37 10° 301° (WNW) 22:37:15 437.568
UKube-1 29 Mar 22:35:44 22:39:49 42° 72° (ENE) 22:43:57 .
AAUSAT CUBESAT 2 29 Mar 22:37:48 22:41:34 32° 264° (W) 22:45:20 437.432
HUMSAT D 29 Mar 22:42:14 22:45:51 31° 71° (ENE) 22:49:32 437.325/437.525
CUSAT 1 29 Mar 22:42:44 22:44:44 17° 285° (WNW) 22:46:36 437.405
SEEDS 29 Mar 22:44:01 22:47:14 20° 268° (W) 22:50:22 437.485
DX 1 29 Mar 22:46:09 22:50:26 59° 74° (ENE) 22:54:45 434.975-435.025
HO-68 29 Mar 23:01:11 23:06:42 23° 269° (W) 23:12:00 435.675
Oscar 11 29 Mar 23:05:24 23:09:23 35° 264° (W) 23:13:20 145.826/435.025
ISS 29 Mar 23:05:25 23:08:14 28° 136° (SE) 23:11:06 145.825
COMPASS 1 29 Mar 23:06:59 23:09:21 14° 270° (W) 23:11:33 437.405
FUNcube-1 29 Mar 23:16:31 23:20:32 50° 261° (W) 23:24:36 145.935
CINEMA 3 29 Mar 23:19:35 23:22:27 17° 268° (W) 23:25:10 145.822/145.860
UWE-3 29 Mar 23:22:04 23:25:52 34° 263° (W) 23:29:40 435.000/436.395/437.385
50 SAT 29 Mar 23:24:15 23:28:06 63° 75° (ENE) 23:32:01 437.505
CUBEBUG 1 29 Mar 23:27:03 23:30:55 31° 70° (ENE) 23:34:48 437.445
VELOX 1 29 Mar 23:27:26 23:31:51 70° 75° (ENE) 23:36:17 145.980
CUBEBUG 2 29 Mar 23:28:20 23:31:47 25° 266° (W) 23:35:11 437.445
NANOSAT C BR1 29 Mar 23:29:35 23:30:31 11° 88° (E) 23:31:43 145.865
ZACube-1 29 Mar 23:29:49 23:33:38 35° 263° (W) 23:37:28 437.345
AISAT 29 Mar 23:32:15 23:36:42 81° 76° (ENE) 23:41:09 437.250
POLYITAN 1 29 Mar 23:33:24 23:35:10 13° 89° (E) 23:37:11 437.675
UNISAT 6 29 Mar 23:34:55 23:38:51 28° 95° (E) 23:42:54 437.425
SPROUT 29 Mar 23:38:09 23:38:50 10° 63° (ENE) 23:39:46 437.525
TIGRISAT 29 Mar 23:44:49 23:48:59 34° 97° (E) 23:53:15 435.000
PCSat 29 Mar 23:45:07 23:49:36 26° 47° (NE) 23:54:08 145.827
DELFI C3 29 Mar 23:52:28 23:54:34 13° 271° (W) 23:56:29 145.870
ESTCUBE 1 30 Mar 00:02:53 00:07:27 85° 76° (ENE) 00:12:02 437.505/2401.250
QB50P1 30 Mar 00:08:52 00:12:37 31° 96° (E) 00:16:26 145.935-145.965
DUCHIFAT 1 30 Mar 00:10:29 00:14:16 31° 96° (E) 00:18:03 145.980
RS-15 30 Mar 00:13:17 00:21:26 22° 350° (N) 00:29:40 29.354- 29.394
UKube-1 30 Mar 00:13:17 00:16:14 17° 268° (W) 00:19:00 .
ANTELSAT 30 Mar 00:15:02 00:19:39 75° 102° (ESE) 00:24:19 437.575/2403.000
HUMSAT D 30 Mar 00:18:37 00:21:44 20° 267° (W) 00:24:46 437.325/437.525
QB50P2 30 Mar 00:23:36 00:27:42 47° 99° (E) 00:31:49 145.880/145.840
DX 1 30 Mar 00:25:11 00:27:09 12° 271° (W) 00:28:54 434.975-435.025
ISS 30 Mar 00:41:32 00:44:35 36° 332° (NNW) 00:47:39 145.825
BUGSAT 1 30 Mar 00:49:21 00:53:21 64° 101° (E) 00:57:21 437.445
POPSAT HIP 1 30 Mar 00:52:12 00:56:27 83° 284° (WNW) 01:00:41 437.405
TISAT 1 30 Mar 00:58:13 01:02:24 67° 75° (ENE) 01:06:36 437.305
NANOSAT C BR1 30 Mar 01:02:42 01:06:53 63° 285° (WNW) 01:11:03 145.865
CUBEBUG 1 30 Mar 01:03:41 01:07:19 24° 266° (W) 01:10:52 437.445
POLYITAN 1 30 Mar 01:07:21 01:11:31 54° 286° (WNW) 01:15:40 437.675
VELOX 1 30 Mar 01:07:46 01:09:00 11° 272° (W) 01:09:55 145.980
SPROUT 30 Mar 01:10:06 01:14:23 77° 258° (WSW) 01:18:42 437.525
ITUPSAT 1 30 Mar 01:10:40 01:13:34 17° 64° (ENE) 01:16:40 437.325
UNISAT 6 30 Mar 01:11:38 01:15:36 29° 291° (WNW) 01:19:35 437.425
YUBILEINY 30 Mar 01:21:28 01:30:01 52° 75° (ENE) 01:38:32 435.215
TIGRISAT 30 Mar 01:21:54 01:25:36 24° 292° (WNW) 01:29:15 435.000
PCSat 30 Mar 01:28:04 01:33:20 51° 246° (WSW) 01:38:32 145.827
QB50P1 30 Mar 01:45:02 01:48:23 22° 292° (WNW) 01:51:38 145.935-145.965
DUCHIFAT 1 30 Mar 01:46:40 01:49:57 22° 292° (WNW) 01:53:10 145.980
Oscar 19 30 Mar 01:50:28 01:52:42 13° 88° (E) 01:55:13 437.125/150
ANTELSAT 30 Mar 01:53:59 01:55:56 12° 297° (WNW) 01:57:40 437.575/2403.000
SWISSCUBE 30 Mar 01:56:20 02:00:56 49° 72° (ENE) 02:05:37 437.505
BEESAT 30 Mar 01:59:14 02:03:49 48° 72° (ENE) 02:08:28 436.000
QB50P2 30 Mar 02:00:38 02:03:17 16° 294° (WNW) 02:05:46 145.880/145.840
ISS 30 Mar 02:19:46 02:21:41 15° 352° (N) 02:23:37 145.825
BUGSAT 1 30 Mar 02:27:09 02:28:23 11° 296° (WNW) 02:29:24 437.445
RS-15 30 Mar 02:29:47 02:38:57 28° 25° (NNE) 02:48:39 29.354- 29.394
STARS 30 Mar 02:33:08 02:35:02 13° 63° (ENE) 02:37:08 437.465
TISAT 1 30 Mar 02:38:10 02:38:44 10° 272° (W) 02:39:03 437.305
ITUPSAT 1 30 Mar 02:46:18 02:51:04 58° 260° (W) 02:55:50 437.325
ITAMSAT 1 30 Mar 02:56:12 02:59:33 18° 90° (E) 03:03:05 435.822/435.867
YUBILEINY 30 Mar 03:18:50 03:26:34 35° 274° (W) 03:34:04 435.215
Oscar 19 30 Mar 03:27:32 03:32:42 74° 286° (WNW) 03:37:53 437.125/150
SWISSCUBE 30 Mar 03:35:49 03:39:09 18° 269° (W) 03:42:18 437.505
KKS-1 30 Mar 03:35:56 03:40:22 88° 256° (WSW) 03:44:50 437.445
BEESAT 30 Mar 03:38:40 03:42:00 18° 269° (W) 03:45:11 436.000
O/OREOS (USA 219) 30 Mar 03:39:22 03:39:46 10° 98° (E) 03:40:28 437.305
Gurwin Techsat 1B 30 Mar 03:47:10 03:52:14 44° 98° (E) 03:57:19 435.225
SO-50 30 Mar 03:47:33 03:52:02 33° 47° (NE) 03:56:31 436.795
AO-7 30 Mar 03:54:48 03:56:04 11° 83° (E) 03:58:11 29.400- 29.500
ISS 30 Mar 03:56:55 03:59:03 16° 12° (NNE) 04:01:13 145.825
HORYU 2 30 Mar 04:05:21 04:07:34 14° 89° (E) 04:10:01 437.375
STARS 30 Mar 04:06:42 04:11:03 64° 259° (W) 04:15:25 437.465
JAS-2 30 Mar 04:08:14 04:11:03 13° 80° (E) 04:14:22 435.910
ITAMSAT 1 30 Mar 04:34:25 04:39:29 56° 288° (WNW) 04:44:31 435.822/435.867
RS-15 30 Mar 04:42:27 04:53:56 71° 53° (NE) 05:05:55 29.354- 29.394
M-CUBED/EXP-1 PRIME 30 Mar 04:43:34 04:46:05 16° 58° (ENE) 04:48:50 437.505
AIST 1 30 Mar 05:03:38 05:08:01 72° 96° (E) 05:12:25
O/OREOS (USA 219) 30 Mar 05:14:01 05:18:36 77° 292° (WNW) 05:23:14 437.305
MOZHAYETS 4 30 Mar 05:15:09 05:19:40 58° 74° (ENE) 05:24:15
Gurwin Techsat 1B 30 Mar 05:27:44 05:31:59 24° 295° (WNW) 05:36:08 435.225
SO-50 30 Mar 05:28:06 05:32:37 34° 245° (WSW) 05:37:00 436.795
ISS 30 Mar 05:32:50 05:36:02 53° 32° (NNE) 05:39:11 145.825
HORYU 2 30 Mar 05:40:14 05:44:40 56° 287° (WNW) 05:49:04 437.375
GONETS M04 30 Mar 05:40:32 05:45:27 16° 57° (ENE) 05:50:55
AO-7 30 Mar 05:42:29 05:50:44 66° 104° (ESE) 05:58:59 29.400- 29.500
JAS-2 30 Mar 05:49:54 05:57:42 74° 101° (ESE) 06:04:49 435.910
AUBIESAT-1 30 Mar 05:51:22 05:55:23 72° 70° (ENE) 05:59:48 437.475
PRISM 30 Mar 06:02:46 06:03:58 11° 63° (ENE) 06:05:23 437.425
M-CUBED/EXP-1 PRIME 30 Mar 06:16:36 06:20:31 52° 256° (WSW) 06:24:48 437.505
VERMONT LUNAR 30 Mar 06:31:14 06:34:21 37° 160° (SSE) 06:37:30 437.305
STRAND 1 30 Mar 06:31:45 06:35:17 20° 64° (ENE) 06:38:59 437.568
AIST 1 30 Mar 06:45:26 06:46:19 10° 295° (WNW) 06:46:57
MOZHAYETS 4 30 Mar 06:54:49 06:57:22 14° 271° (W) 06:59:42
RS-15 30 Mar 06:55:41 07:05:45 35° 253° (WSW) 07:15:48 29.354- 29.394
CUTE-I 30 Mar 07:01:05 07:05:04 22° 92° (E) 07:09:11 437.470
Cubesat XI-IV 30 Mar 07:01:27 07:05:30 22° 92° (E) 07:09:40 437.490
CUBESAT XI-V 30 Mar 07:04:03 07:08:42 63° 75° (ENE) 07:13:22 437.345
ISS 30 Mar 07:09:55 07:12:11 17° 227° (SW) 07:14:21 145.825
PHONESAT 2.4 30 Mar 07:17:31 07:20:46 37° 160° (SSE) 07:24:05 2401.200-2431.200
CUSAT 1 30 Mar 07:34:19 07:37:02 16° 73° (ENE) 07:40:25 437.405
PRISM 30 Mar 07:34:45 07:38:57 70° 259° (W) 07:43:11 437.425
GONETS M04 30 Mar 07:35:14 07:44:08 79° 81° (E) 07:52:59
JAS-2 30 Mar 07:35:55 07:42:00 25° 300° (WNW) 07:47:34 435.910
AO-7 30 Mar 07:36:05 07:43:04 30° 302° (WNW) 07:49:51 29.400- 29.500
VERMONT LUNAR 30 Mar 08:08:33 08:11:53 77° 177° (S) 08:15:15 437.305
STRAND 1 30 Mar 08:09:04 08:14:07 54° 260° (W) 08:19:11 437.568
DANDE 30 Mar 08:27:22 08:31:09 38° 78° (ENE) 08:36:12 436.750
CUTE-I 30 Mar 08:40:20 08:45:27 47° 289° (WNW) 08:50:30 437.470
Cubesat XI-IV 30 Mar 08:40:47 08:45:53 46° 290° (WNW) 08:50:55 437.490
HO-68 30 Mar 08:43:01 08:44:17 11° 83° (E) 08:46:13 435.675
CUBESAT XI-V 30 Mar 08:44:17 08:46:40 13° 272° (W) 08:48:48 437.345
PHONESAT 2.4 30 Mar 08:55:26 08:58:57 77° 176° (S) 09:02:29 2401.200-2431.200
CUSAT 1 30 Mar 09:15:34 09:19:50 52° 262° (W) 09:25:31 437.405
GONETS M04 30 Mar 09:33:43 09:40:06 22° 279° (W) 09:46:05
BRITE-PL 30 Mar 09:34:54 09:38:48 37° 97° (E) 09:42:55 437.365/2234.400
CANX-2 30 Mar 09:45:40 09:49:27 29° 95° (E) 09:53:14 2200.000
VERMONT LUNAR 30 Mar 09:46:13 09:49:31 55° 194° (SSW) 09:52:49 437.305
CUTE 1.7 + AOD 2 30 Mar 09:59:18 10:03:19 37° 97° (E) 10:07:21 437.475
DOVE 4 30 Mar 10:01:59 10:05:55 33° 97° (E) 10:10:03 437.250
DANDE 30 Mar 10:11:18 10:14:27 19° 264° (W) 10:18:04 436.750
GOMX 1 30 Mar 10:17:04 10:21:21 72° 101° (ESE) 10:25:51 467.674
AAUSAT CUBESAT 2 30 Mar 10:20:32 10:24:30 38° 97° (E) 10:28:27 437.432
BEESAT 2 30 Mar 10:22:39 10:25:46 22° 113° (ESE) 10:29:01 435.950
HO-68 30 Mar 10:26:17 10:33:30 71° 103° (ESE) 10:40:40 435.675
SEEDS 30 Mar 10:27:06 10:31:22 65° 101° (E) 10:35:37 437.485
POLYITAN 1 30 Mar 10:28:12 10:29:05 11° 63° (ENE) 10:30:12 437.675
PHONESAT 2.4 30 Mar 10:33:44 10:37:13 59° 193° (SSW) 10:40:43 2401.200-2431.200
UNISAT 6 30 Mar 10:34:40 10:38:05 24° 68° (ENE) 10:41:37 437.425
TIGRISAT 30 Mar 10:44:13 10:47:53 29° 69° (ENE) 10:51:39 435.000
COMPASS 1 30 Mar 10:48:12 10:52:29 88° 292° (WNW) 10:56:44 437.405
Oscar 11 30 Mar 10:52:21 10:56:29 40° 98° (E) 11:00:36 145.826/435.025
BEESAT 3 30 Mar 10:57:38 11:01:39 61° 119° (ESE) 11:05:45 437.485
QB50P1 30 Mar 11:02:09 11:05:33 25° 69° (ENE) 11:09:01 145.935-145.965
DUCHIFAT 1 30 Mar 11:03:28 11:06:52 25° 69° (ENE) 11:10:20 145.980
FUNcube-1 30 Mar 11:04:47 11:08:35 29° 95° (E) 11:12:31 145.935
UWE-3 30 Mar 11:11:09 11:15:22 43° 98° (E) 11:19:42 435.000/436.395/437.385
CINEMA 3 30 Mar 11:12:01 11:16:27 83° 283° (WNW) 11:21:04 145.822/145.860
BRITE-PL 30 Mar 11:14:11 11:17:12 19° 292° (WNW) 11:20:10 437.365/2234.400
ANTELSAT 30 Mar 11:14:21 11:18:34 65° 75° (ENE) 11:22:53 437.575/2403.000
QB50P2 30 Mar 11:16:47 11:20:38 36° 71° (ENE) 11:24:32 145.880/145.840
ZACube-1 30 Mar 11:17:46 11:21:55 40° 98° (E) 11:26:10 437.345
CUBEBUG 2 30 Mar 11:17:57 11:22:22 62° 101° (E) 11:26:54 437.445
VELOX 1 30 Mar 11:19:52 11:21:48 13° 89° (E) 11:23:57 145.980
CANX-2 30 Mar 11:21:44 11:25:17 25° 291° (WNW) 11:28:46 2200.000
VERMONT LUNAR 30 Mar 11:24:28 11:26:50 18° 209° (SSW) 11:29:11 437.305
AISAT 30 Mar 11:24:28 11:26:59 15° 90° (E) 11:29:40 437.250
DELFI C3 30 Mar 11:29:42 11:33:50 85° 106° (ESE) 11:37:56 145.870
CUTE 1.7 + AOD 2 30 Mar 11:35:51 11:39:02 20° 293° (WNW) 11:42:06 437.475
AIST 2 30 Mar 11:38:51 11:42:57 49° 118° (ESE) 11:47:07 435.215
BUGSAT 1 30 Mar 11:39:28 11:43:25 44° 73° (ENE) 11:47:22 437.445
DOVE 4 30 Mar 11:40:08 11:43:36 23° 291° (WNW) 11:47:05 437.250
POPSAT HIP 1 30 Mar 11:44:57 11:49:10 74° 75° (ENE) 11:53:22 437.405
NANOSAT C BR1 30 Mar 11:55:09 11:59:22 85° 257° (WSW) 12:03:36 145.865
ESTCUBE 1 30 Mar 11:56:46 11:59:44 18° 91° (E) 12:02:51 437.505/2401.250
AAUSAT CUBESAT 2 30 Mar 11:56:50 11:59:54 19° 293° (WNW) 12:02:50 437.432
GOMX 1 30 Mar 11:57:46 11:59:06 11° 295° (WNW) 12:00:11 467.674
UKube-1 30 Mar 11:59:01 12:03:22 79° 102° (ESE) 12:07:41 .
BEESAT 2 30 Mar 11:59:53 12:03:44 36° 309° (NW) 12:07:37 435.950
POLYITAN 1 30 Mar 12:00:18 12:04:30 73° 258° (WSW) 12:08:43 437.675
HUMSAT D 30 Mar 12:01:19 12:05:33 62° 100° (E) 12:09:48 437.325/437.525
SEEDS 30 Mar 12:04:53 12:06:42 12° 296° (WNW) 12:08:20 437.485
DX 1 30 Mar 12:10:31 12:14:52 73° 285° (WNW) 12:19:10 434.975-435.025
UNISAT 6 30 Mar 12:11:03 12:14:48 29° 265° (W) 12:18:34 437.425
PHONESAT 2.4 30 Mar 12:12:31 12:15:12 20° 208° (SSW) 12:17:50 2401.200-2431.200
HO-68 30 Mar 12:15:03 12:20:40 24° 301° (WNW) 12:26:03 435.675
TIGRISAT 30 Mar 12:21:13 12:24:41 24° 266° (W) 12:28:08 435.000
Oscar 11 30 Mar 12:29:16 12:32:24 19° 293° (WNW) 12:35:26 145.826/435.025
50 SAT 30 Mar 12:36:40 12:40:43 78° 284° (WNW) 12:44:46 437.505
BEESAT 3 30 Mar 12:37:25 12:40:08 16° 319° (NW) 12:42:47 437.485
QB50P1 30 Mar 12:37:41 12:41:21 28° 265° (W) 12:44:59 145.935-145.965
DUCHIFAT 1 30 Mar 12:39:00 12:42:39 27° 265° (W) 12:46:14 145.980
FUNcube-1 30 Mar 12:41:10 12:44:52 26° 291° (WNW) 12:48:32 145.935
TISAT 1 30 Mar 12:45:59 12:46:19 10° 88° (E) 12:46:58 437.305
UWE-3 30 Mar 12:48:31 12:51:40 19° 293° (WNW) 12:54:43 435.000/436.395/437.385
CUBEBUG 1 30 Mar 12:51:35 12:55:53 61° 101° (E) 13:00:09 437.445
QB50P2 30 Mar 12:53:37 12:56:42 19° 268° (W) 12:59:40 145.880/145.840
VELOX 1 30 Mar 12:54:29 12:58:49 57° 287° (WNW) 13:03:07 145.980
ZACube-1 30 Mar 12:54:52 12:58:04 19° 293° (WNW) 13:01:11 437.345
ANTELSAT 30 Mar 12:54:55 12:55:57 11° 273° (W) 12:56:43 437.575/2403.000
CUBEBUG 2 30 Mar 12:56:21 12:58:40 14° 295° (WNW) 13:00:48 437.445
SPROUT 30 Mar 12:57:44 13:00:39 18° 92° (E) 13:03:42 437.525
AISAT 30 Mar 12:59:40 13:03:55 48° 288° (WNW) 13:08:10 437.250
Oscar 19 30 Mar 13:07:00 13:10:37 21° 64° (ENE) 13:14:25 437.125/150
BUGSAT 1 30 Mar 13:16:44 13:19:11 15° 269° (W) 13:21:27 437.445
AIST 2 30 Mar 13:18:34 13:21:50 20° 316° (NW) 13:25:03 435.215
ESTCUBE 1 30 Mar 13:32:35 13:36:53 43° 288° (WNW) 13:41:08 437.505/2401.250
UKube-1 30 Mar 13:38:00 13:38:58 10° 298° (WNW) 13:39:40 .
HUMSAT D 30 Mar 13:38:55 13:40:53 13° 295° (WNW) 13:42:41 437.325/437.525
O/OREOS (USA 219) 30 Mar 13:45:27 13:48:59 22° 56° (NE) 13:52:34 437.305
SWISSCUBE 30 Mar 13:58:42 14:00:33 12° 88° (E) 14:02:40 437.505
BEESAT 30 Mar 14:01:34 14:03:19 12° 88° (E) 14:05:21 436.000
ITAMSAT 1 30 Mar 14:13:57 14:18:19 29° 67° (ENE) 14:22:47 435.822/435.867
TISAT 1 30 Mar 14:18:29 14:22:40 66° 285° (WNW) 14:26:50 437.305
YUBILEINY 30 Mar 14:21:59 14:30:31 60° 92° (E) 14:39:11 435.215
PCSat 30 Mar 14:28:00 14:31:47 20° 107° (ESE) 14:35:46 145.827
CUBEBUG 1 30 Mar 14:29:42 14:31:48 13° 296° (WNW) 14:33:43 437.445
SPROUT 30 Mar 14:32:57 14:36:57 38° 288° (WNW) 14:40:54 437.525
Oscar 19 30 Mar 14:44:41 14:49:39 50° 261° (W) 14:54:39 437.125/150
ITUPSAT 1 30 Mar 14:47:05 14:51:29 35° 97° (E) 14:55:52 437.325
AO-7 30 Mar 14:52:16 14:57:46 21° 52° (NE) 15:03:34 29.400- 29.500
HORYU 2 30 Mar 15:04:26 15:06:39 14° 63° (ENE) 15:09:03 437.375
Gurwin Techsat 1B 30 Mar 15:08:14 15:13:31 71° 74° (ENE) 15:18:50 435.225
AIST 1 30 Mar 15:11:50 15:14:44 18° 70° (ENE) 15:17:45
O/OREOS (USA 219) 30 Mar 15:24:21 15:28:35 38° 254° (WSW) 15:32:44 437.305
KKS-1 30 Mar 15:28:05 15:31:01 18° 91° (E) 15:34:07 437.445
SWISSCUBE 30 Mar 15:34:13 15:39:00 69° 286° (WNW) 15:43:44 437.505
BEESAT 30 Mar 15:36:59 15:41:46 70° 285° (WNW) 15:46:31 436.000
ITAMSAT 1 30 Mar 15:52:54 15:57:43 36° 263° (W) 16:02:30 435.822/435.867
STARS 30 Mar 15:57:01 16:00:29 23° 94° (E) 16:04:02 437.465
JAS-2 30 Mar 16:01:17 16:07:29 35° 64° (ENE) 16:14:18 435.910
PCSat 30 Mar 16:09:30 16:14:49 57° 303° (WNW) 16:20:11 145.827
YUBILEINY 30 Mar 16:20:18 16:27:58 31° 293° (WNW) 16:35:28 435.215
ITUPSAT 1 30 Mar 16:25:17 16:29:14 25° 293° (WNW) 16:33:04 437.325
HORYU 2 30 Mar 16:38:29 16:42:52 60° 259° (W) 16:47:17 437.375
AO-7 30 Mar 16:41:14 16:49:33 85° 72° (ENE) 16:57:54 29.400- 29.500
AIST 1 30 Mar 16:48:37 16:52:37 37° 268° (W) 16:56:32
Gurwin Techsat 1B 30 Mar 16:51:10 16:54:08 14° 272° (W) 16:56:49 435.225
KKS-1 30 Mar 17:03:42 17:07:55 42° 288° (WNW) 17:12:06 437.445
MOZHAYETS 4 30 Mar 17:11:55 17:14:13 14° 88° (E) 17:16:45
STARS 30 Mar 17:33:04 17:37:01 32° 290° (WNW) 17:40:56 437.465
JAS-2 30 Mar 17:45:36 17:52:17 49° 264° (W) 17:59:37 435.910
PCSat 30 Mar 17:57:35 17:59:33 12° 326° (NW) 18:01:19 145.827
M-CUBED/EXP-1 PRIME 30 Mar 17:59:40 18:02:05 14° 93° (E) 18:04:44 437.505
CUTE-I 30 Mar 18:22:46 18:27:37 37° 69° (ENE) 18:32:32 437.470
Cubesat XI-IV 30 Mar 18:23:17 18:28:11 38° 69° (ENE) 18:33:08 437.490
AO-7 30 Mar 18:37:37 18:43:28 20° 271° (W) 18:48:53 29.400- 29.500
BEESAT 2 30 Mar 18:41:50 18:44:37 17° 42° (NE) 18:47:28 435.950
GONETS M04 30 Mar 18:43:55 18:48:47 17° 79° (E) 18:54:13
MOZHAYETS 4 30 Mar 18:47:20 18:51:55 58° 286° (WNW) 18:56:28
CUBESAT XI-V 30 Mar 19:02:11 19:04:51 16° 89° (E) 19:07:42 437.345
RS-15 30 Mar 19:06:51 19:16:41 43° 110° (ESE) 19:26:49 29.354- 29.394
AUBIESAT-1 30 Mar 19:07:03 19:11:52 61° 105° (ESE) 19:16:31 437.475
HO-68 30 Mar 19:14:18 19:15:11 10° 49° (NE) 19:16:31 435.675
BEESAT 3 30 Mar 19:16:45 19:20:37 38° 51° (NE) 19:24:27 437.485
PRISM 30 Mar 19:18:36 19:21:07 16° 91° (E) 19:23:47 437.425
M-CUBED/EXP-1 PRIME 30 Mar 19:32:38 19:37:29 68° 290° (WNW) 19:42:12 437.505
SO-50 30 Mar 19:41:57 19:46:34 79° 121° (ESE) 19:51:22 436.795
AIST 2 30 Mar 20:00:43 20:04:37 34° 49° (NE) 20:08:29 435.215
CUTE-I 30 Mar 20:03:09 20:07:47 29° 265° (W) 20:12:21 437.470
Cubesat XI-IV 30 Mar 20:03:46 20:08:24 28° 266° (W) 20:12:56 437.490
BEESAT 2 30 Mar 20:19:04 20:23:09 56° 241° (WSW) 20:27:07 435.950
STRAND 1 30 Mar 20:19:30 20:24:28 50° 99° (E) 20:29:25 437.568
